Weather History for KSKA - February, 2013

Change the Weather History Date:

Thursday, February 7, 2013

  Actual Average Record
Temperature  
Mean Temperature 36 °F -  
Max Temperature 40 °F 35 °F 53 °F (2015)
Min Temperature 31 °F 23 °F 4 °F (2014)
Degree Days  
Heating Degree Days 30    
Moisture  
Dew Point 32 °F    
Average Humidity 90    
Maximum Humidity 100    
Minimum Humidity 75    
Precipitation  
Precipitation 0.01 in - - ()
Sea Level Pressure  
Sea Level Pressure 29.95 in    
Wind  
Wind Speed 7 mph (SSW)    
Max Wind Speed 12 mph    
Max Gust Speed -    
Visibility 10 miles    
Events Rain , Snow    
Averages and records for this station are not official NWS values.
T = Trace of Precipitation, MM = Missing Value Source: NWS Daily Summary

Daily Weather History Graph

Daily Weather History Graph

Search for Another Location

Airport or City:

Trip Planner

Search our weather history database for the weather conditions in past years. The results will help you decide how hot, cold, wet, or windy it might be!

Date:

Astronomy

Feb. 07, 2013 Rise Set
Actual Time 7:08 AM PST 5:01 PM PST
Civil Twilight 6:35 AM PST 5:34 PM PST
Nautical Twilight 5:59 AM PST 6:10 PM PST
Astronomical Twilight 5:23 AM PST 6:46 PM PST
Moon 4:58 AM PST (2/7) 2:25 PM PST (2/7)
Length of Visible Light 10h 58m
Length of Day
9h 53m
Waning Crescent, 8% of the Moon is Illuminated
Feb 7
Waning Crescent
Feb 9
New
Feb 17
First Quarter
Feb 25
Full
Mar 4
Last Quarter

Hourly Weather History & Observations

Time (PST) Temp. Windchill Dew Point Humidity Pressure Visibility Wind Dir Wind Speed Gust Speed Precip Events Conditions
12:58 AM 33.6 °F 25.6 °F 31.1 °F 90% 29.96 in 10.0 mi NE 10.4 mph - N/A   Partly Cloudy
1:58 AM 32.7 °F 25.7 °F 30.6 °F 92% 29.96 in 10.0 mi NE 8.1 mph - N/A   Mostly Cloudy
2:58 AM 32.0 °F 24.2 °F 30.0 °F 92% 29.88 in 10.0 mi ENE 9.2 mph - N/A   Scattered Clouds
2:59 AM 32.0 °F 23.6 °F 30.2 °F 93% 29.88 in 10.0 mi NE 10.4 mph - N/A   Scattered Clouds
3:08 AM 32.0 °F 23.6 °F 30.2 °F 93% 29.87 in 10.0 mi ENE 10.4 mph - N/A   Mostly Cloudy
3:58 AM 31.8 °F 25.4 °F 29.8 °F 92% 29.93 in 10.0 mi NE 6.9 mph - 0.00 in   Mostly Cloudy
4:46 AM 32.0 °F 25.6 °F 30.2 °F 93% 29.88 in 10.0 mi NW 6.9 mph - N/A   Mostly Cloudy
4:58 AM 32.9 °F 27.5 °F 29.8 °F 88% 29.95 in 10.0 mi North 5.8 mph - 0.00 in   Mostly Cloudy
5:02 AM 32.0 °F 25.6 °F 30.2 °F 93% 29.88 in 10.0 mi NNE 6.9 mph - N/A   Scattered Clouds
5:53 AM 32.0 °F 24.8 °F 30.2 °F 93% 29.87 in 10.0 mi NE 8.1 mph - N/A   Mostly Cloudy
5:58 AM 33.3 °F 25.7 °F 30.4 °F 89% 29.94 in 10.0 mi NE 9.2 mph - 0.00 in   Mostly Cloudy
6:02 AM 32.0 °F 24.2 °F 30.2 °F 93% 29.87 in 10.0 mi NE 9.2 mph - N/A   Mostly Cloudy
6:58 AM 32.7 °F 24.5 °F 30.7 °F 92% 29.94 in 10.0 mi NE 10.4 mph - 0.00 in   Mostly Cloudy
7:58 AM 33.8 °F 30.8 °F 30.7 °F 89% 29.97 in 10.0 mi East 3.5 mph - N/A   Mostly Cloudy
8:00 AM 32.0 °F 27.5 °F 32.0 °F 100% 29.90 in 10.0 mi East 4.6 mph - N/A   Mostly Cloudy
8:20 AM 33.8 °F 28.6 °F 32.0 °F 93% 29.91 in 10.0 mi SSE 5.8 mph - N/A Snow Light Snow
8:58 AM 33.4 °F - 32.2 °F 95% 29.99 in 10.0 mi Calm Calm - 0.01 in Snow Light Snow
9:18 AM 32.0 °F - 32.0 °F 100% 29.91 in 10.0 mi South 1.2 mph - N/A Rain Light Rain
9:35 AM 33.8 °F 28.6 °F 32.0 °F 93% 29.90 in 10.0 mi NE 5.8 mph - N/A   Mostly Cloudy
9:58 AM 34.7 °F 29.6 °F 33.6 °F 96% 29.97 in 10.0 mi NE 5.8 mph - 0.00 in   Overcast
10:58 AM 37.4 °F 33.8 °F 33.8 °F 87% 29.97 in 10.0 mi ESE 4.6 mph - N/A   Overcast
11:30 AM 39.2 °F 34.2 °F 33.8 °F 81% 29.91 in 10.0 mi SSE 6.9 mph - N/A   Mostly Cloudy
11:48 AM 39.2 °F 35.9 °F 33.8 °F 81% 29.91 in 10.0 mi SSE 4.6 mph - N/A   Mostly Cloudy
11:58 AM 39.2 °F 34.2 °F 34.0 °F 82% 29.97 in 10.0 mi South 6.9 mph - 0.00 in   Overcast
12:23 PM 39.2 °F 34.2 °F 32.0 °F 75% 29.90 in 10.0 mi SSW 6.9 mph - N/A   Overcast
12:28 PM 39.2 °F 33.6 °F 32.0 °F 75% 29.90 in 10.0 mi South 8.1 mph - N/A   Overcast
12:33 PM 39.2 °F 34.2 °F 32.0 °F 75% 29.90 in 10.0 mi SSW 6.9 mph - N/A   Overcast
12:40 PM 39.2 °F 33.6 °F 32.0 °F 75% 29.90 in 10.0 mi SW 8.1 mph - N/A   Overcast
12:55 PM 39.2 °F 33.0 °F 32.0 °F 75% 29.90 in 10.0 mi SW 9.2 mph - N/A   Overcast
12:57 PM 39.2 °F 32.5 °F 32.0 °F 75% 29.90 in 10.0 mi SW 10.4 mph - N/A   Overcast
12:58 PM 40.1 °F 33.6 °F 32.9 °F 75% 29.96 in 10.0 mi SW 10.4 mph - 0.00 in   Overcast
1:03 PM 39.2 °F 32.5 °F 32.0 °F 75% 29.90 in 10.0 mi SW 10.4 mph - N/A   Overcast
1:12 PM 37.4 °F 29.8 °F 32.0 °F 81% 29.90 in 10.0 mi SW 11.5 mph - N/A   Overcast
1:13 PM 37.4 °F 30.3 °F 32.0 °F 81% 29.90 in 10.0 mi SW 10.4 mph - N/A   Overcast
1:23 PM 37.4 °F 31.4 °F 32.0 °F 81% 29.90 in 10.0 mi SW 8.1 mph - N/A   Overcast
1:58 PM 38.1 °F 32.3 °F 32.4 °F 80% 29.96 in 10.0 mi WSW 8.1 mph - 0.00 in   Partly Cloudy
2:58 PM 37.2 °F 31.9 °F 33.1 °F 85% 29.97 in 10.0 mi WSW 6.9 mph - N/A   Overcast
3:58 PM 36.1 °F 33.5 °F 32.7 °F 87% 29.99 in 10.0 mi SW 3.5 mph - N/A   Overcast
4:18 PM 35.6 °F - 32.0 °F 87% 29.92 in 10.0 mi SSW 2.3 mph - N/A   Overcast
4:58 PM 36.1 °F 32.3 °F 32.5 °F 87% 30.00 in 10.0 mi SSW 4.6 mph - N/A   Overcast
5:13 PM 35.6 °F 31.7 °F 32.0 °F 87% 29.93 in 10.0 mi SSW 4.6 mph - N/A   Overcast
5:23 PM 35.6 °F 31.7 °F 32.0 °F 87% 29.93 in 10.0 mi SSW 4.6 mph - N/A Rain Light Rain
5:30 PM 35.6 °F 30.7 °F 32.0 °F 87% 29.93 in 10.0 mi SSW 5.8 mph - N/A   Overcast
5:58 PM 34.7 °F 30.6 °F 32.7 °F 92% 30.01 in 10.0 mi SSW 4.6 mph - 0.00 in   Overcast
6:10 PM 35.6 °F 32.8 °F 32.0 °F 87% 29.94 in 10.0 mi SSW 3.5 mph - N/A   Overcast
6:15 PM 35.6 °F 32.8 °F 32.0 °F 87% 29.94 in 10.0 mi SW 3.5 mph - N/A   Overcast
6:25 PM 33.8 °F 30.8 °F 32.0 °F 93% 29.94 in 10.0 mi WSW 3.5 mph - N/A   Mostly Cloudy
6:35 PM 33.8 °F - 32.0 °F 93% 29.94 in 10.0 mi SSW 2.3 mph - N/A   Mostly Cloudy
6:40 PM 33.8 °F - 32.0 °F 93% 29.94 in 10.0 mi Variable 1.2 mph - N/A   Mostly Cloudy
6:45 PM 33.8 °F 30.8 °F 32.0 °F 93% 29.94 in 10.0 mi East 3.5 mph - N/A   Light Drizzle
6:48 PM 33.8 °F 30.8 °F 32.0 °F 93% 29.95 in 10.0 mi ESE 3.5 mph - N/A   Overcast
6:58 PM 34.3 °F - 32.5 °F 93% 30.02 in 10.0 mi SE 2.3 mph - 0.00 in   Overcast
7:28 PM 33.8 °F - 32.0 °F 93% 29.95 in 10.0 mi SSW 2.3 mph - N/A   Mostly Cloudy
7:33 PM 33.8 °F - 32.0 °F 93% 29.95 in 10.0 mi South 2.3 mph - N/A   Mostly Cloudy
7:48 PM 33.8 °F - 32.0 °F 93% 29.96 in 10.0 mi SSW 2.3 mph - N/A   Scattered Clouds
7:53 PM 33.8 °F - 32.0 °F 93% 29.96 in 10.0 mi SSW 2.3 mph - N/A   Mostly Cloudy
7:58 PM 34.0 °F 31.0 °F 32.7 °F 95% 30.03 in 10.0 mi SW 3.5 mph - N/A   Mostly Cloudy
7:59 PM 33.8 °F 30.8 °F 32.0 °F 93% 29.96 in 10.0 mi SW 3.5 mph - N/A   Mostly Cloudy
8:02 PM 33.8 °F 30.8 °F 32.0 °F 93% 29.96 in 10.0 mi SW 3.5 mph - N/A   Mostly Cloudy
8:12 PM 33.8 °F 30.8 °F 32.0 °F 93% 29.96 in 10.0 mi SW 3.5 mph - N/A   Mostly Cloudy
8:17 PM 33.8 °F 30.8 °F 32.0 °F 93% 29.96 in 10.0 mi SW 3.5 mph - N/A   Overcast
8:30 PM 32.0 °F 27.5 °F 32.0 °F 100% 29.96 in 10.0 mi SSW 4.6 mph - N/A   Overcast
8:50 PM 32.0 °F 27.5 °F 32.0 °F 100% 29.97 in 10.0 mi SSW 4.6 mph - N/A   Overcast
8:58 PM 33.4 °F 29.1 °F 32.7 °F 97% 30.04 in 10.0 mi SSW 4.6 mph - 0.00 in   Mostly Cloudy
9:58 PM 33.1 °F 28.7 °F 32.4 °F 97% 30.05 in 10.0 mi SSW 4.6 mph - N/A   Scattered Clouds
10:02 PM 32.0 °F 27.5 °F 32.0 °F 100% 29.98 in 10.0 mi SSW 4.6 mph - N/A   Scattered Clouds
10:32 PM 32.0 °F 27.5 °F 32.0 °F 100% 29.98 in 10.0 mi SSW 4.6 mph - N/A   Overcast
10:37 PM 32.0 °F 28.7 °F 32.0 °F 100% 29.98 in 10.0 mi SSW 3.5 mph - N/A   Overcast
10:52 PM 32.0 °F 28.7 °F 32.0 °F 100% 29.99 in 10.0 mi SSW 3.5 mph - N/A   Overcast
10:57 PM 32.0 °F 28.7 °F 32.0 °F 100% 29.99 in 10.0 mi SSW 3.5 mph - N/A   Overcast
10:58 PM 32.9 °F 29.8 °F 32.4 °F 98% 30.05 in 10.0 mi SSW 3.5 mph - N/A   Overcast
11:58 PM 32.4 °F 29.1 °F 32.2 °F 99% 30.06 in 10.0 mi South 3.5 mph - N/A   Overcast